Mackinac Island, MI

6:48 AM EDT on October 21, 2017 (GMT -0400)
Mackinac Island

Weather History for KMCD - October, 2011

Change the Weather History Date:

Wednesday, October 26, 2011

  Actual Average Record
Temperature  
Mean Temperature 42 °F -  
Max Temperature 44 °F 47 °F 67 °F (1989)
Min Temperature 39 °F 37 °F 25 °F (1976)
Degree Days  
Heating Degree Days 24    
Moisture  
Dew Point 35 °F    
Average Humidity 77    
Maximum Humidity 87    
Minimum Humidity 61    
Precipitation  
Precipitation 0.01 in - - ()
Sea Level Pressure  
Sea Level Pressure 29.95 in    
Wind  
Wind Speed 5 mph (NE)    
Max Wind Speed 9 mph    
Max Gust Speed -    
Visibility 10 miles    
Events Rain    
Averages and records for this station are not official NWS values.
T = Trace of Precipitation, MM = Missing Value Source: NWS Daily Summary

Daily Weather History Graph

Daily Weather History Graph

Search for Another Location

Airport or City:

Trip Planner

Search our weather history database for the weather conditions in past years. The results will help you decide how hot, cold, wet, or windy it might be!

Date:

Astronomy

Oct. 26, 2011 Rise Set
Actual Time 8:09 AM EDT 6:34 PM EDT
Civil Twilight 7:39 AM EDT 7:05 PM EDT
Nautical Twilight 7:04 AM EDT 7:39 PM EDT
Astronomical Twilight 6:29 AM EDT 8:14 PM EDT
Moon 7:59 AM EDT (10/26) 6:12 PM EDT (10/26)
Length of Visible Light 11h 25m
Length of Day
10h 24m
Waning Crescent, 0% of the Moon is Illuminated
Oct 26
Waning Crescent
Oct 26
New
Nov 2
First Quarter
Nov 10
Full
Nov 18
Last Quarter

Hourly Weather History & Observations

Time (EDT) Temp. Windchill Dew Point Humidity Pressure Visibility Wind Dir Wind Speed Gust Speed Precip Events Conditions
12:14 AM 39.2 °F 35.0 °F 35.6 °F 87% 29.98 in 10.0 mi NE 5.8 mph - 0.01 in Rain Light Rain
12:34 AM 39.2 °F 35.9 °F 35.6 °F 87% 29.97 in 10.0 mi NE 4.6 mph - 0.01 in Rain Light Rain
12:54 AM 39.2 °F 35.0 °F 33.8 °F 81% 29.95 in 10.0 mi ENE 5.8 mph - 0.01 in Rain Light Rain
12:59 AM 39.2 °F 35.9 °F 33.8 °F 81% 29.95 in 10.0 mi ENE 4.6 mph - 0.01 in   Overcast
1:14 AM 39.2 °F 35.0 °F 33.8 °F 81% 29.95 in 10.0 mi ENE 5.8 mph - N/A   Overcast
1:33 AM 41.0 °F 38.0 °F 33.8 °F 76% 29.95 in 10.0 mi ENE 4.6 mph - N/A   Overcast
1:54 AM 41.0 °F 37.1 °F 33.8 °F 76% 29.95 in 10.0 mi NE 5.8 mph - N/A   Overcast
2:14 AM 41.0 °F 35.2 °F 33.8 °F 76% 29.95 in 10.0 mi NE 9.2 mph - N/A   Overcast
2:34 AM 41.0 °F 36.4 °F 33.8 °F 76% 29.95 in 10.0 mi NE 6.9 mph - N/A   Overcast
2:54 AM 41.0 °F 36.4 °F 33.8 °F 76% 29.95 in 10.0 mi NE 6.9 mph - N/A   Overcast
3:14 AM 41.0 °F 35.8 °F 33.8 °F 76% 29.94 in 10.0 mi NE 8.1 mph - N/A   Overcast
3:33 AM 41.0 °F 36.4 °F 33.8 °F 76% 29.93 in 10.0 mi NE 6.9 mph - N/A   Overcast
3:54 AM 41.0 °F 36.4 °F 33.8 °F 76% 29.93 in 10.0 mi NE 6.9 mph - N/A   Overcast
4:14 AM 41.0 °F 35.8 °F 35.6 °F 81% 29.93 in 10.0 mi NE 8.1 mph - N/A   Overcast
4:34 AM 41.0 °F 38.0 °F 35.6 °F 81% 29.92 in 10.0 mi NE 4.6 mph - N/A   Overcast
4:54 AM 41.0 °F 38.0 °F 35.6 °F 81% 29.92 in 10.0 mi NE 4.6 mph - N/A   Overcast
5:14 AM 41.0 °F - 35.6 °F 81% 29.92 in 10.0 mi Calm Calm - N/A   Overcast
5:33 AM 41.0 °F - 35.6 °F 81% 29.94 in 10.0 mi Calm Calm - N/A   Overcast
5:54 AM 41.0 °F 38.0 °F 35.6 °F 81% 29.95 in 10.0 mi NE 4.6 mph - N/A   Overcast
6:14 AM 41.0 °F - 35.6 °F 81% 29.95 in 10.0 mi Calm Calm - N/A   Overcast
6:33 AM 41.0 °F 38.0 °F 35.6 °F 81% 29.95 in 10.0 mi East 4.6 mph - N/A   Overcast
6:54 AM 41.0 °F 38.0 °F 35.6 °F 81% 29.94 in 10.0 mi East 4.6 mph - N/A   Overcast
7:14 AM 41.0 °F 38.0 °F 35.6 °F 81% 29.94 in 10.0 mi ENE 4.6 mph - N/A   Overcast
7:33 AM 41.0 °F - 35.6 °F 81% 29.94 in 10.0 mi Calm Calm - N/A   Overcast
7:54 AM 41.0 °F - 35.6 °F 81% 29.94 in 10.0 mi Calm Calm - N/A   Overcast
8:14 AM 41.0 °F 39.0 °F 35.6 °F 81% 29.94 in 5.0 mi ENE 3.5 mph - N/A   Haze
8:33 AM 41.0 °F - 35.6 °F 81% 29.95 in 7.0 mi Calm Calm - N/A   Overcast
8:54 AM 41.0 °F 39.0 °F 33.8 °F 76% 29.95 in 10.0 mi ENE 3.5 mph - N/A   Overcast
9:14 AM 41.0 °F 36.4 °F 33.8 °F 76% 29.97 in 10.0 mi NE 6.9 mph - N/A   Overcast
9:34 AM 41.0 °F 39.0 °F 33.8 °F 76% 29.96 in 10.0 mi NE 3.5 mph - N/A   Overcast
9:54 AM 41.0 °F 39.0 °F 35.6 °F 81% 29.97 in 10.0 mi NNE 3.5 mph - N/A   Overcast
10:14 AM 41.0 °F 39.0 °F 33.8 °F 76% 29.97 in 10.0 mi ENE 3.5 mph - N/A   Overcast
10:34 AM 41.0 °F 39.0 °F 33.8 °F 76% 29.97 in 10.0 mi ENE 3.5 mph - N/A   Overcast
10:54 AM 41.0 °F 39.0 °F 35.6 °F 81% 29.97 in 10.0 mi ENE 3.5 mph - N/A   Overcast
11:13 AM 41.0 °F - 35.6 °F 81% 29.97 in 10.0 mi Calm Calm - N/A   Overcast
11:54 AM 42.8 °F 40.1 °F 35.6 °F 76% 29.97 in 10.0 mi ENE 4.6 mph - N/A   Overcast
12:14 PM 42.8 °F 40.1 °F 35.6 °F 76% 29.97 in 10.0 mi ENE 4.6 mph - N/A   Overcast
12:34 PM 42.8 °F - 35.6 °F 76% 29.95 in 10.0 mi Calm Calm - N/A   Overcast
1:14 PM 42.8 °F - 35.6 °F 76% 29.96 in 10.0 mi Calm Calm - N/A   Overcast
1:33 PM 42.8 °F - 35.6 °F 76% 29.96 in 10.0 mi Calm Calm - N/A   Overcast
1:54 PM 42.8 °F 41.1 °F 35.6 °F 76% 29.97 in 10.0 mi NE 3.5 mph - N/A   Overcast
2:14 PM 42.8 °F 40.1 °F 35.6 °F 76% 29.95 in 10.0 mi NE 4.6 mph - N/A   Overcast
2:34 PM 42.8 °F 41.1 °F 35.6 °F 76% 29.95 in 10.0 mi NE 3.5 mph - N/A   Overcast
2:54 PM 42.8 °F 41.1 °F 35.6 °F 76% 29.96 in 10.0 mi NNE 3.5 mph - N/A   Overcast
3:14 PM 42.8 °F 41.1 °F 33.8 °F 70% 29.96 in 10.0 mi North 3.5 mph - N/A   Overcast
3:34 PM 44.6 °F 43.1 °F 33.8 °F 66% 29.95 in 10.0 mi NNE 3.5 mph - N/A   Mostly Cloudy
3:54 PM 44.6 °F 43.1 °F 33.8 °F 66% 29.95 in 10.0 mi NNE 3.5 mph - N/A   Overcast
4:14 PM 44.6 °F 42.2 °F 33.8 °F 66% 29.96 in 10.0 mi North 4.6 mph - N/A   Overcast
4:34 PM 44.6 °F 40.7 °F 32.0 °F 61% 29.95 in 10.0 mi NNE 6.9 mph - N/A   Overcast
4:54 PM 44.6 °F 41.4 °F 32.0 °F 61% 29.96 in 10.0 mi North 5.8 mph - N/A   Mostly Cloudy
5:14 PM 44.6 °F 43.1 °F 33.8 °F 66% 29.95 in 10.0 mi North 3.5 mph - N/A   Overcast
5:34 PM 44.6 °F - 32.0 °F 61% 29.95 in 10.0 mi Calm Calm - N/A   Overcast
6:14 PM 42.8 °F - 32.0 °F 66% 29.94 in 10.0 mi Calm Calm - N/A   Clear
6:33 PM 41.0 °F - 32.0 °F 70% 29.94 in 10.0 mi Calm Calm - N/A   Clear
6:54 PM 41.0 °F - 32.0 °F 70% 29.95 in 10.0 mi Calm Calm - N/A   Clear
7:14 PM 37.4 °F - 33.8 °F 87% 29.95 in 10.0 mi Calm Calm - N/A   Clear
7:33 PM 37.4 °F - 32.0 °F 81% 29.95 in 10.0 mi Calm Calm - N/A   Mostly Cloudy
7:54 PM 37.4 °F - 33.8 °F 87% 29.95 in 10.0 mi Calm Calm - N/A   Scattered Clouds
8:34 PM 37.4 °F - 33.8 °F 87% 29.95 in 10.0 mi Calm Calm - N/A   Scattered Clouds
8:54 PM 35.6 °F - 33.8 °F 93% 29.96 in 10.0 mi Calm Calm - N/A   Mostly Cloudy
9:14 PM 37.4 °F - 33.8 °F 87% 29.96 in 10.0 mi Calm Calm - N/A   Overcast
9:34 PM 37.4 °F - 33.8 °F 87% 29.96 in 10.0 mi Calm Calm - N/A   Overcast
9:54 PM 35.6 °F - 33.8 °F 93% 29.95 in 10.0 mi Calm Calm - N/A   Mostly Cloudy
10:14 PM 35.6 °F - 33.8 °F 93% 29.95 in 10.0 mi Calm Calm - N/A   Scattered Clouds
10:34 PM 35.6 °F - 32.0 °F 87% 29.95 in 10.0 mi Calm Calm - N/A   Clear
10:54 PM 35.6 °F - 32.0 °F 87% 29.96 in 10.0 mi Calm Calm - N/A   Clear
11:14 PM 33.8 °F - 32.0 °F 93% 29.96 in 10.0 mi Calm Calm - N/A   Clear
11:34 PM 33.8 °F - 32.0 °F 93% 29.95 in 10.0 mi Calm Calm - N/A   Clear
11:54 PM 33.8 °F 30.8 °F 32.0 °F 93% 29.95 in 10.0 mi North 3.5 mph - N/A   Clear